Starlink 35940

operational
NORAD ID: 66617 Int'l Des: 2025-271 Owner: SPXS Country: US Constellation: starlink
LEOCIRCULAR

About Starlink 35940

Description loading...

Live Position

Loading 3D Globe...

Upcoming Passes

Altitude History

Altitude vs Time

uPlot chart will show altitude changes over time

Two-Line Element Set

1 66617U 25271A 26037.85340578 .00031485 00000-0 10707-2 0 9999
2 66617 53.1580 283.3057 0000886 121.6972 238.4115 15.30198540 12843
Epoch: Feb 6, 2026 • Age: 4 hours

Current Status

Altitude 491.8 km
Velocity 7.62 km/s
Sub-Earth Point -47.57°S, 9.57°E
Launch Date Nov 23, 2025
Age 0.2 years
Type internet

Technical Details

Classification Payload
Mass 575.00 kg
Dry Mass 530.00 kg
Total Mass 575.00 kg
Length 0.30 m
Diameter 4.10 m
Span 29.00 m
Shape Box + pan
Manufacturer SPXS
Bus Type Starlink V2MO
Phase Status In Orbit
Owner/State SPXS/US

Large Constellations

Loading constellations...